ARJ9734 ULLI-ULMM

Flight info

Callsign ARJ9734
Flight time 1h 18m
Altitude 33000
Route PETAP1A PETAP T457 LULOR/K0826F340 T693 ASGOR ASGOR1H
Aircraft E50P/M-SDFGIRWY/C

Departure

Time 2026-04-26 14:30
Airport Pulkovo Airport (ULLI)

Arrival

Time 2026-04-26 15:48
Airport Emperor Nicholas II Murmansk Airport (ULMM)
Time Latitude Longitude Altitude Speed Heading
2026-04-26 14:27 59.80208 30.28659 70 ft 0 kts 50°
2026-04-26 14:27 59.80211 30.28667 70 ft 4 kts 49°
2026-04-26 14:28 59.80268 30.28779 68 ft 18 kts 45°
2026-04-26 14:28 59.80344 30.28792 71 ft 14 kts 280°
2026-04-26 14:28 59.80349 30.28745 67 ft 2 kts 288°
2026-04-26 14:28 59.80350 30.28738 68 ft 0 kts 288°
2026-04-26 14:29 59.80354 30.28720 71 ft 14 kts 290°
2026-04-26 14:29 59.80469 30.28027 71 ft 90 kts 284°
2026-04-26 14:29 59.80689 30.26429 153 ft 137 kts 289°
2026-04-26 14:29 59.80943 30.24471 535 ft 155 kts 288°
2026-04-26 14:30 59.81200 30.22367 1318 ft 156 kts 292°
2026-04-26 14:30 59.81411 30.20247 2168 ft 158 kts 292°
2026-04-26 14:30 59.81585 30.17947 2533 ft 185 kts 291°
2026-04-26 14:30 59.81762 30.15175 2638 ft 221 kts 288°
2026-04-26 14:31 59.81911 30.11909 2668 ft 252 kts 284°
2026-04-26 14:31 59.81988 30.08221 2574 ft 279 kts 282°
2026-04-26 14:31 59.82454 30.04728 2507 ft 250 kts 308°
2026-04-26 14:31 59.83580 30.02280 2511 ft 236 kts 323°
2026-04-26 14:32 59.84710 30.00070 2570 ft 218 kts 319°
2026-04-26 14:32 59.85578 29.97744 2719 ft 202 kts 312°
2026-04-26 14:32 59.86299 29.95403 2832 ft 202 kts 311°
2026-04-26 14:32 59.87025 29.93023 3491 ft 202 kts 311°
2026-04-26 14:33 59.87762 29.90596 4166 ft 211 kts 312°
2026-04-26 14:33 59.88547 29.88045 5884 ft 223 kts 309°
2026-04-26 14:33 59.89363 29.85348 7720 ft 230 kts 308°
2026-04-26 14:33 59.90259 29.82466 8967 ft 268 kts 309°
2026-04-26 14:34 59.91681 29.79527 9015 ft 325 kts 325°
2026-04-26 14:34 59.92997 29.77795 9026 ft 361 kts 333°
2026-04-26 14:34 59.95537 29.76073 9021 ft 411 kts 351°
2026-04-26 14:34 59.98545 29.75990 9189 ft 448 kts
2026-04-26 14:35 60.01528 29.76678 11946 ft 416 kts
2026-04-26 14:35 60.04374 29.76917 14440 ft 409 kts
2026-04-26 14:35 60.07223 29.76956 16137 ft 410 kts
2026-04-26 14:35 60.10053 29.77427 17973 ft 407 kts
2026-04-26 14:36 60.12860 29.77988 19684 ft 404 kts
2026-04-26 14:36 60.15656 29.78131 21601 ft 400 kts
2026-04-26 14:36 60.18431 29.78305 23521 ft 398 kts
2026-04-26 14:36 60.21191 29.78757 25131 ft 399 kts
2026-04-26 14:37 60.23965 29.79152 26773 ft 400 kts
2026-04-26 14:37 60.26749 29.79395 28464 ft 402 kts
2026-04-26 14:37 60.29545 29.79675 29977 ft 404 kts
2026-04-26 14:37 60.32352 29.80127 31147 ft 406 kts
2026-04-26 14:38 60.35116 29.81407 32218 ft 411 kts 15°
2026-04-26 14:38 60.37859 29.83476 32544 ft 432 kts 21°
2026-04-26 14:38 60.40689 29.85933 32548 ft 455 kts 21°
2026-04-26 14:38 60.43658 29.88431 32547 ft 473 kts 20°
2026-04-26 14:39 60.46777 29.91016 32552 ft 490 kts 20°
2026-04-26 14:39 60.49975 29.93668 32559 ft 504 kts 20°
2026-04-26 14:39 60.53270 29.96398 32563 ft 517 kts 20°
2026-04-26 14:39 60.56620 29.99173 32562 ft 528 kts 20°
2026-04-26 14:40 60.60068 30.02027 32559 ft 538 kts 21°
2026-04-26 14:40 60.67033 30.07789 32562 ft 545 kts 20°
2026-04-26 14:41 60.74065 30.13614 32562 ft 546 kts 21°
2026-04-26 14:41 60.81150 30.19488 32563 ft 546 kts 21°
2026-04-26 14:42 60.88149 30.25298 32564 ft 547 kts 21°
2026-04-26 14:42 60.95209 30.31164 32563 ft 547 kts 21°
2026-04-26 14:43 61.02270 30.37039 32564 ft 548 kts 21°
2026-04-26 14:43 61.09333 30.42922 32564 ft 548 kts 21°
2026-04-26 14:44 61.16420 30.48835 32563 ft 549 kts 21°
2026-04-26 14:44 61.23472 30.54738 32564 ft 549 kts 21°
2026-04-26 14:45 61.30471 30.61276 32564 ft 550 kts 24°
2026-04-26 14:45 61.37508 30.67533 32566 ft 550 kts 21°
2026-04-26 14:46 61.44502 30.74011 32571 ft 551 kts 23°
2026-04-26 14:46 61.47951 30.77229 31718 ft 527 kts 22°
2026-04-26 14:46 61.51390 30.80290 30636 ft 542 kts 21°
2026-04-26 14:47 61.58346 30.86713 30573 ft 547 kts 24°
2026-04-26 14:47 61.65276 30.93136 30578 ft 548 kts 22°
2026-04-26 14:48 61.72271 30.99646 30576 ft 549 kts 24°
2026-04-26 14:48 61.79253 31.06188 30583 ft 549 kts 22°
2026-04-26 14:49 61.86251 31.12762 30583 ft 551 kts 24°
2026-04-26 14:49 61.93247 31.19386 30591 ft 551 kts 23°
2026-04-26 14:50 62.00265 31.26045 30594 ft 552 kts 24°
2026-04-26 14:50 62.07267 31.32740 30596 ft 552 kts 23°
2026-04-26 14:51 62.14283 31.39468 30599 ft 553 kts 24°
2026-04-26 14:51 62.21242 31.46187 30599 ft 553 kts 23°
2026-04-26 14:52 62.28253 31.52981 30602 ft 554 kts 24°
2026-04-26 14:52 62.35271 31.59824 30603 ft 554 kts 24°
2026-04-26 14:53 62.42279 31.66690 31196 ft 550 kts 24°
2026-04-26 14:53 62.45729 31.70091 31648 ft 550 kts 24°
2026-04-26 14:53 62.49240 31.73547 32030 ft 551 kts 24°
2026-04-26 14:53 62.52727 31.76985 32422 ft 551 kts 24°
2026-04-26 14:54 62.56209 31.80441 32600 ft 556 kts 24°
2026-04-26 14:54 62.63290 31.87491 32604 ft 559 kts 24°
2026-04-26 14:55 62.70396 31.94359 32602 ft 558 kts 19°
2026-04-26 14:55 62.77978 31.97758 32608 ft 557 kts
2026-04-26 14:56 62.85716 31.97619 32614 ft 556 kts 358°
2026-04-26 14:56 62.93447 31.97337 32614 ft 556 kts 358°
2026-04-26 14:57 63.01187 31.96910 32623 ft 556 kts 358°
2026-04-26 14:57 63.08920 31.96600 32630 ft 556 kts 358°
2026-04-26 14:58 63.16643 31.96198 32632 ft 556 kts 358°
2026-04-26 14:58 63.24390 31.95862 32638 ft 556 kts 358°
2026-04-26 14:59 63.32125 31.95476 32646 ft 556 kts 358°
2026-04-26 14:59 63.39802 31.95824 32651 ft 557 kts
2026-04-26 15:00 63.47575 31.96112 32658 ft 557 kts
2026-04-26 15:00 63.55324 31.96577 32664 ft 557 kts
2026-04-26 15:01 63.63078 31.96907 32665 ft 558 kts
2026-04-26 15:01 63.70843 31.97346 32676 ft 558 kts
2026-04-26 15:02 63.78596 31.97705 32676 ft 558 kts
2026-04-26 15:02 63.86363 31.98130 32682 ft 558 kts
2026-04-26 15:03 63.94128 31.98507 32685 ft 558 kts
2026-04-26 15:03 64.01886 31.98925 32688 ft 558 kts
2026-04-26 15:04 64.09613 31.99313 32704 ft 558 kts
2026-04-26 15:04 64.17381 31.99729 32705 ft 558 kts
2026-04-26 15:05 64.25156 32.00130 32712 ft 558 kts
2026-04-26 15:05 64.32914 32.00547 32715 ft 558 kts
2026-04-26 15:06 64.40681 32.00954 32714 ft 557 kts
2026-04-26 15:06 64.48446 32.01373 32719 ft 558 kts
2026-04-26 15:07 64.60075 32.01996 32730 ft 558 kts 360°
2026-04-26 15:07 64.67846 32.02422 32729 ft 558 kts
2026-04-26 15:08 64.75596 32.02840 32732 ft 557 kts 360°
2026-04-26 15:08 64.83356 32.03269 32732 ft 558 kts
2026-04-26 15:09 64.91115 32.03694 32736 ft 557 kts
2026-04-26 15:09 64.98854 32.04127 32741 ft 557 kts 360°
2026-04-26 15:10 65.05279 32.04488 32748 ft 557 kts 360°
2026-04-26 15:10 65.14361 32.05000 32750 ft 557 kts
2026-04-26 15:11 65.22113 32.05437 32754 ft 556 kts 360°
2026-04-26 15:11 65.29859 32.05883 32759 ft 557 kts 360°
2026-04-26 15:12 65.37611 32.06324 32759 ft 557 kts
2026-04-26 15:12 65.45364 32.06776 32764 ft 557 kts
2026-04-26 15:13 65.53121 32.07224 32769 ft 558 kts
2026-04-26 15:13 65.60885 32.07642 32769 ft 558 kts 360°
2026-04-26 15:14 65.68590 32.07957 32772 ft 558 kts
2026-04-26 15:14 65.76345 32.08361 32775 ft 558 kts 360°
2026-04-26 15:15 65.84118 32.08703 32771 ft 558 kts
2026-04-26 15:15 65.91878 32.09095 32772 ft 558 kts 360°
2026-04-26 15:16 65.99620 32.09454 32776 ft 558 kts
2026-04-26 15:16 66.07397 32.09841 32771 ft 558 kts 360°
2026-04-26 15:17 66.13903 32.10151 32771 ft 558 kts 360°
2026-04-26 15:17 66.22926 32.10599 32770 ft 558 kts 360°
2026-04-26 15:18 66.30693 32.10979 32774 ft 558 kts 360°
2026-04-26 15:18 66.38454 32.11446 32770 ft 559 kts
2026-04-26 15:19 66.46099 32.15168 32758 ft 561 kts 12°
2026-04-26 15:19 66.53676 32.19757 32760 ft 561 kts 12°
2026-04-26 15:20 66.61261 32.24478 32760 ft 561 kts 12°
2026-04-26 15:20 66.68842 32.29137 32766 ft 561 kts 12°
2026-04-26 15:21 66.76418 32.33888 32768 ft 557 kts 13°
2026-04-26 15:21 66.80050 32.36165 32768 ft 516 kts 12°
2026-04-26 15:21 66.83415 32.38276 32765 ft 479 kts 12°
2026-04-26 15:22 66.85510 32.39594 32767 ft 458 kts 12°
2026-04-26 15:22 66.88496 32.41477 32758 ft 427 kts 12°
2026-04-26 15:22 66.91300 32.43251 32755 ft 404 kts 12°
2026-04-26 15:22 66.93950 32.44929 32756 ft 382 kts 12°
2026-04-26 15:23 66.97320 32.47066 32755 ft 371 kts 12°
2026-04-26 15:23 66.98995 32.48132 32751 ft 367 kts 12°
2026-04-26 15:23 67.04775 32.51820 32757 ft 371 kts 12°
2026-04-26 15:24 67.08988 32.54526 32753 ft 369 kts 12°
2026-04-26 15:24 67.13971 32.57732 32751 ft 369 kts 12°
2026-04-26 15:25 67.18925 32.60937 32754 ft 370 kts 12°
2026-04-26 15:25 67.23918 32.64180 32757 ft 371 kts 12°
2026-04-26 15:26 67.28939 32.67454 32756 ft 372 kts 12°
2026-04-26 15:26 67.33971 32.70751 32755 ft 374 kts 12°
2026-04-26 15:27 67.39026 32.74077 32755 ft 376 kts 12°
2026-04-26 15:27 67.44104 32.77426 32754 ft 377 kts 12°
2026-04-26 15:28 67.46688 32.78304 32756 ft 374 kts
2026-04-26 15:28 67.49284 32.78184 32758 ft 374 kts 357°
2026-04-26 15:28 67.54497 32.78051 32759 ft 375 kts 358°
2026-04-26 15:29 67.59732 32.77809 32757 ft 376 kts 357°
2026-04-26 15:29 67.64969 32.77632 32634 ft 373 kts 358°
2026-04-26 15:30 67.70119 32.77425 31571 ft 366 kts 357°
2026-04-26 15:30 67.72614 32.77331 31112 ft 362 kts 358°
2026-04-26 15:30 67.75154 32.77238 30651 ft 358 kts 357°
2026-04-26 15:31 67.77631 32.77142 30209 ft 354 kts 358°
2026-04-26 15:31 67.82504 32.76952 29269 ft 346 kts 357°
2026-04-26 15:31 67.84895 32.76860 28786 ft 341 kts 358°
2026-04-26 15:32 67.88801 32.76708 28023 ft 334 kts 358°
2026-04-26 15:32 67.91881 32.76586 27421 ft 329 kts 358°
2026-04-26 15:32 67.94160 32.76498 27004 ft 325 kts 358°
2026-04-26 15:33 67.96408 32.76411 26583 ft 321 kts 358°
2026-04-26 15:33 67.98629 32.76323 26182 ft 318 kts 358°
2026-04-26 15:33 68.00835 32.76269 25800 ft 315 kts 359°
2026-04-26 15:33 68.03012 32.76266 25176 ft 316 kts 359°
2026-04-26 15:34 68.05290 32.76238 23939 ft 337 kts 359°
2026-04-26 15:34 68.07625 32.76191 23441 ft 331 kts 359°
2026-04-26 15:34 68.09904 32.76163 22808 ft 327 kts 359°
2026-04-26 15:34 68.12165 32.76128 22146 ft 323 kts 359°
2026-04-26 15:35 68.14409 32.76094 21488 ft 320 kts 359°
2026-04-26 15:35 68.16626 32.76062 20923 ft 317 kts 359°
2026-04-26 15:35 68.18819 32.76025 20279 ft 314 kts 359°
2026-04-26 15:35 68.20994 32.75997 19681 ft 312 kts 359°
2026-04-26 15:36 68.23158 32.75960 19099 ft 309 kts 359°
2026-04-26 15:36 68.25298 32.75929 18552 ft 306 kts 359°
2026-04-26 15:36 68.27426 32.75898 17915 ft 305 kts 358°
2026-04-26 15:36 68.29539 32.75862 17291 ft 303 kts 358°
2026-04-26 15:37 68.31636 32.75834 16693 ft 300 kts 358°
2026-04-26 15:37 68.33711 32.75799 16108 ft 298 kts 358°
2026-04-26 15:37 68.35778 32.75772 15527 ft 295 kts 358°
2026-04-26 15:37 68.37822 32.75735 14975 ft 293 kts 358°
2026-04-26 15:38 68.39829 32.75707 14442 ft 291 kts 358°
2026-04-26 15:38 68.41881 32.75675 13905 ft 290 kts 358°
2026-04-26 15:38 68.43858 32.75824 13396 ft 287 kts
2026-04-26 15:38 68.45845 32.76075 12862 ft 285 kts
2026-04-26 15:39 68.47820 32.76264 12346 ft 282 kts
2026-04-26 15:39 68.49776 32.76462 11840 ft 280 kts
2026-04-26 15:39 68.51710 32.76675 11354 ft 277 kts
2026-04-26 15:39 68.53009 32.76975 11005 ft 277 kts
2026-04-26 15:40 68.55522 32.77752 10386 ft 274 kts
2026-04-26 15:40 68.57325 32.79479 9920 ft 274 kts 23°
2026-04-26 15:40 68.58915 32.82156 8850 ft 265 kts 35°
2026-04-26 15:40 68.60208 32.85804 7342 ft 267 kts 48°
2026-04-26 15:41 68.61230 32.89996 5994 ft 262 kts 54°
2026-04-26 15:41 68.62223 32.94123 4619 ft 257 kts 52°
2026-04-26 15:41 68.63216 32.98145 3268 ft 253 kts 52°
2026-04-26 15:41 68.64182 33.02142 2596 ft 237 kts 52°
2026-04-26 15:42 68.65259 33.04929 2578 ft 198 kts 21°
2026-04-26 15:42 68.66480 33.05246 2577 ft 164 kts 342°
2026-04-26 15:42 68.67228 33.03532 2579 ft 131 kts 296°
2026-04-26 15:42 68.67379 33.01198 2584 ft 119 kts 284°
2026-04-26 15:43 68.67568 32.99084 2584 ft 110 kts 288°
2026-04-26 15:43 68.67714 32.97051 2511 ft 106 kts 285°
2026-04-26 15:43 68.68315 32.93639 2143 ft 94 kts 324°
2026-04-26 15:44 68.68841 32.92585 2085 ft 95 kts 316°
2026-04-26 15:44 68.69886 32.90416 1990 ft 92 kts 322°
2026-04-26 15:44 68.70412 32.89459 1985 ft 89 kts 325°
2026-04-26 15:45 68.71476 32.87489 1775 ft 97 kts 326°
2026-04-26 15:45 68.72038 32.86378 1636 ft 103 kts 324°
2026-04-26 15:46 68.73297 32.84085 1311 ft 112 kts 323°
2026-04-26 15:46 68.73950 32.82918 1125 ft 114 kts 328°
2026-04-26 15:46 68.74611 32.81712 962 ft 114 kts 324°
2026-04-26 15:46 68.75051 32.80861 848 ft 114 kts 325°
2026-04-26 15:47 68.75954 32.79259 584 ft 117 kts 328°
2026-04-26 15:47 68.77313 32.76796 294 ft 112 kts 326°
2026-04-26 15:47 68.77909 32.75674 268 ft 97 kts 326°
2026-04-26 15:48 68.78369 32.74846 258 ft 64 kts 328°
2026-04-26 15:48 68.78795 32.74049 252 ft 77 kts 325°
2026-04-26 15:48 68.79061 32.73585 248 ft 28 kts 338°
2026-04-26 15:48 68.79151 32.73691 247 ft 19 kts 62°
2026-04-26 15:49 68.79154 32.73935 247 ft 16 kts 144°
2026-04-26 15:49 68.79068 32.74045 248 ft 7 kts 195°
2026-04-26 15:49 68.79027 32.73973 248 ft 0 kts 205°
2026-04-26 15:53 68.79005 32.73945 248 ft 13 kts 205°
2026-04-26 15:54 68.78856 32.73944 250 ft 40 kts 144°
2026-04-26 15:54 68.78514 32.74575 254 ft 35 kts 144°
2026-04-26 15:54 68.78335 32.74928 259 ft 24 kts 144°
2026-04-26 15:54 68.78315 32.75149 258 ft 15 kts 49°
2026-04-26 15:55 68.78380 32.75420 257 ft 19 kts 54°
2026-04-26 15:55 68.78426 32.75606 257 ft 2 kts 53°
2026-04-26 15:55 68.78472 32.75626 257 ft 13 kts 352°
2026-04-26 15:55 68.78499 32.75541 257 ft 2 kts 212°
2026-04-26 15:56 68.78475 32.75577 257 ft 5 kts 146°
2026-04-26 15:56 68.78474 32.75579 257 ft 0 kts 146°
2026-04-26 15:57 68.78483 32.75562 257 ft 0 kts 146°